Time,TemperatureF,DewpointF,PressureIn,WindDirection,WindDirectionDegrees,WindSpeedMPH,WindSpeedGustMPH,Humidity,HourlyPrecipIn,Conditions,Clouds,dailyrainin,SoftwareType,DateUTC
2013-04-11 00:02:00,30.0,27.0,-100.00,ENE,60,14.0,20.0,90,0.00,,,0.00,,2013-04-11 05:02:00,
2013-04-11 00:12:00,30.0,28.0,-100.00,NE,55,12.0,21.0,91,0.00,,,0.00,,2013-04-11 05:12:00,
2013-04-11 00:22:00,30.0,28.0,-100.00,NE,45,17.0,22.0,91,0.00,,,0.00,,2013-04-11 05:22:00,
2013-04-11 00:32:00,30.0,28.0,-100.00,NE,50,16.0,21.0,91,0.00,,,0.00,,2013-04-11 05:32:00,
2013-04-11 00:42:00,30.0,28.0,-100.00,NE,40,12.0,19.0,91,0.00,,,0.00,,2013-04-11 05:42:00,
2013-04-11 00:52:00,31.0,27.0,-100.00,NE,40,15.0,19.0,85,0.00,,,0.00,,2013-04-11 05:52:00,
2013-04-11 01:02:00,32.0,25.0,-100.00,NE,45,12.0,23.0,75,0.00,,,0.00,,2013-04-11 06:02:00,
2013-04-11 01:12:00,32.0,25.0,-100.00,NE,40,11.0,23.0,73,0.00,,,0.00,,2013-04-11 06:12:00,
2013-04-11 01:22:00,32.0,21.0,-100.00,NE,55,14.0,22.0,63,0.00,,,0.00,,2013-04-11 06:22:00,
2013-04-11 01:32:00,33.0,21.0,-100.00,ENE,65,13.0,20.0,60,0.00,,,0.00,,2013-04-11 06:32:00,
2013-04-11 01:42:00,33.0,19.0,-100.00,ENE,70,11.0,17.0,58,0.00,,,0.00,,2013-04-11 06:42:00,
2013-04-11 01:52:00,32.0,19.0,-100.00,ENE,70,19.0,24.0,59,0.00,,,0.00,,2013-04-11 06:52:00,
2013-04-11 02:02:00,31.0,21.0,-100.00,ENE,70,24.0,30.0,65,0.00,,,0.00,,2013-04-11 07:02:00,
2013-04-11 02:12:00,31.0,23.0,-100.00,ENE,65,13.0,28.0,70,0.00,,,0.00,,2013-04-11 07:12:00,
2013-04-11 02:22:00,31.0,23.0,-100.00,ENE,65,12.0,22.0,74,0.00,,,0.00,,2013-04-11 07:22:00,
2013-04-11 02:32:00,30.0,25.0,-100.00,ENE,65,12.0,21.0,78,0.00,,,0.00,,2013-04-11 07:32:00,
2013-04-11 02:42:00,30.0,25.0,-100.00,NE,55,14.0,22.0,83,0.00,,,0.00,,2013-04-11 07:42:00,
2013-04-11 02:52:00,29.0,25.0,-100.00,ENE,60,13.0,22.0,86,0.00,,,0.00,,2013-04-11 07:52:00,
2013-04-11 03:02:00,29.0,27.0,-100.00,ENE,60,14.0,22.0,88,0.00,,,0.00,,2013-04-11 08:02:00,
2013-04-11 03:12:00,29.0,27.0,-100.00,ENE,60,16.0,24.0,88,0.00,,,0.00,,2013-04-11 08:12:00,
2013-04-11 03:22:00,29.0,27.0,-100.00,NE,55,16.0,22.0,89,0.00,,,0.00,,2013-04-11 08:22:00,
2013-04-11 03:32:00,29.0,27.0,-100.00,NE,55,16.0,23.0,89,0.00,,,0.00,,2013-04-11 08:32:00,
2013-04-11 03:42:00,29.0,27.0,-100.00,ENE,65,11.0,19.0,88,0.00,,,0.00,,2013-04-11 08:42:00,
2013-04-11 03:52:00,29.0,27.0,-100.00,ENE,70,11.0,16.0,90,0.00,,,0.00,,2013-04-11 08:52:00,
2013-04-11 04:02:00,28.0,27.0,-100.00,NE,55,13.0,17.0,92,0.00,,,0.00,,2013-04-11 09:02:00,
2013-04-11 04:12:00,28.0,27.0,-100.00,NE,55,11.0,16.0,94,0.00,,,0.00,,2013-04-11 09:12:00,
2013-04-11 04:22:00,28.0,27.0,-100.00,NE,50,14.0,19.0,95,0.00,,,0.00,,2013-04-11 09:22:00,
2013-04-11 04:33:00,28.0,27.0,-100.00,NE,50,10.0,17.0,96,0.00,,,0.00,,2013-04-11 09:33:00,
2013-04-11 04:42:00,28.0,27.0,-100.00,NE,50,10.0,17.0,96,0.00,,,0.00,,2013-04-11 09:42:00,
2013-04-11 04:52:00,28.0,27.0,-100.00,NE,50,14.0,17.0,96,0.00,,,0.00,,2013-04-11 09:52:00,
2013-04-11 05:02:00,28.0,27.0,-100.00,NE,55,13.0,20.0,97,0.00,,,0.00,,2013-04-11 10:02:00,
2013-04-11 05:12:00,28.0,27.0,-100.00,NE,50,15.0,21.0,97,0.00,,,0.00,,2013-04-11 10:12:00,
2013-04-11 05:23:00,28.0,27.0,-100.00,NE,55,15.0,19.0,97,0.00,,,0.00,,2013-04-11 10:23:00,
2013-04-11 05:32:00,28.0,27.0,-100.00,NE,55,15.0,23.0,97,0.00,,,0.00,,2013-04-11 10:32:00,
2013-04-11 05:42:00,28.0,27.0,-100.00,NE,55,15.0,23.0,97,0.00,,,0.00,,2013-04-11 10:42:00,
2013-04-11 05:52:00,27.0,27.0,-100.00,ENE,60,15.0,22.0,97,0.00,,,0.00,,2013-04-11 10:52:00,
2013-04-11 06:02:00,27.0,27.0,-100.00,ENE,60,15.0,22.0,97,0.00,,,0.00,,2013-04-11 11:02:00,
2013-04-11 06:12:00,27.0,27.0,-100.00,ENE,65,13.0,19.0,97,0.00,,,0.00,,2013-04-11 11:12:00,
2013-04-11 06:22:00,27.0,27.0,-100.00,ENE,65,17.0,24.0,97,0.00,,,0.00,,2013-04-11 11:22:00,
2013-04-11 06:32:00,27.0,27.0,-100.00,ENE,60,16.0,23.0,97,0.00,,,0.01,,2013-04-11 11:32:00,
2013-04-11 06:42:00,27.0,27.0,-100.00,NE,55,18.0,28.0,97,0.00,,,0.01,,2013-04-11 11:42:00,
2013-04-11 06:52:00,27.0,27.0,-100.00,ENE,60,18.0,29.0,97,0.00,,,0.01,,2013-04-11 11:52:00,
2013-04-11 07:02:00,27.0,27.0,-100.00,NE,55,18.0,26.0,97,0.00,,,0.01,,2013-04-11 12:02:00,
2013-04-11 07:12:00,27.0,27.0,-100.00,NE,50,19.0,26.0,97,0.00,,,0.01,,2013-04-11 12:12:00,
2013-04-11 07:22:00,27.0,27.0,-100.00,ENE,60,18.0,27.0,97,0.00,,,0.01,,2013-04-11 12:22:00,
2013-04-11 07:32:00,27.0,27.0,-100.00,NE,55,17.0,30.0,97,0.00,,,0.01,,2013-04-11 12:32:00,
2013-04-11 07:42:00,27.0,27.0,-100.00,ENE,60,17.0,27.0,97,0.00,,,0.01,,2013-04-11 12:42:00,
2013-04-11 07:52:00,27.0,27.0,-100.00,ENE,65,17.0,30.0,97,0.00,,,0.01,,2013-04-11 12:52:00,
2013-04-11 08:02:00,27.0,27.0,-100.00,NE,55,19.0,24.0,97,0.00,,,0.01,,2013-04-11 13:02:00,
2013-04-11 08:12:00,27.0,27.0,-100.00,ENE,60,20.0,30.0,96,0.00,,,0.01,,2013-04-11 13:12:00,
2013-04-11 08:22:00,27.0,27.0,-100.00,ENE,65,18.0,28.0,96,0.00,,,0.01,,2013-04-11 13:22:00,
2013-04-11 08:32:00,27.0,27.0,-100.00,ENE,60,17.0,24.0,96,0.00,,,0.01,,2013-04-11 13:32:00,
2013-04-11 08:43:00,27.0,27.0,-100.00,ENE,65,17.0,27.0,96,0.00,,,0.01,,2013-04-11 13:43:00,
2013-04-11 08:52:00,27.0,27.0,-100.00,ENE,60,18.0,26.0,96,0.00,,,0.01,,2013-04-11 13:52:00,
2013-04-11 09:02:00,27.0,27.0,-100.00,ENE,65,20.0,34.0,96,0.00,,,0.01,,2013-04-11 14:02:00,
2013-04-11 09:12:00,27.0,27.0,-100.00,ENE,65,22.0,34.0,96,0.00,,,0.01,,2013-04-11 14:12:00,
2013-04-11 09:22:00,28.0,27.0,-100.00,ENE,70,20.0,30.0,96,0.00,,,0.01,,2013-04-11 14:22:00,
2013-04-11 09:32:00,28.0,27.0,-100.00,ENE,70,23.0,32.0,96,0.00,,,0.01,,2013-04-11 14:32:00,
2013-04-11 09:42:00,28.0,27.0,-100.00,ENE,70,21.0,34.0,96,0.00,,,0.01,,2013-04-11 14:42:00,
2013-04-11 09:52:00,28.0,27.0,-100.00,ENE,70,22.0,35.0,95,0.00,,,0.01,,2013-04-11 14:52:00,
2013-04-11 10:02:00,29.0,27.0,-100.00,ENE,65,20.0,29.0,94,0.00,,,0.01,,2013-04-11 15:02:00,
2013-04-11 10:12:00,29.0,27.0,-100.00,ENE,65,20.0,30.0,93,0.00,,,0.01,,2013-04-11 15:12:00,
2013-04-11 10:22:00,29.0,27.0,-100.00,ENE,70,22.0,31.0,92,0.00,,,0.01,,2013-04-11 15:22:00,
2013-04-11 10:32:00,29.0,27.0,-100.00,ENE,70,19.0,31.0,90,0.00,,,0.01,,2013-04-11 15:32:00,
2013-04-11 10:43:00,30.0,27.0,-100.00,ENE,75,24.0,33.0,88,0.00,,,0.01,,2013-04-11 15:43:00,
2013-04-11 10:52:00,30.0,27.0,-100.00,ENE,70,23.0,32.0,87,0.00,,,0.01,,2013-04-11 15:52:00,
2013-04-11 11:02:00,30.0,27.0,-100.00,ENE,75,23.0,32.0,86,0.00,,,0.01,,2013-04-11 16:02:00,
2013-04-11 11:12:00,30.0,27.0,-100.00,ENE,65,24.0,32.0,86,0.00,,,0.01,,2013-04-11 16:12:00,
2013-04-11 11:22:00,31.0,27.0,-100.00,ENE,65,18.0,29.0,85,0.00,,,0.01,,2013-04-11 16:22:00,
2013-04-11 11:32:00,31.0,27.0,-100.00,ENE,75,21.0,30.0,83,0.00,,,0.01,,2013-04-11 16:32:00,
2013-04-11 11:41:00,31.0,27.0,-100.00,ENE,70,19.0,27.0,84,0.00,,,0.01,,2013-04-11 16:41:00,
2013-04-11 11:52:00,31.0,27.0,-100.00,ENE,75,20.0,27.0,85,0.00,,,0.01,,2013-04-11 16:52:00,
2013-04-11 12:02:00,31.0,27.0,-100.00,ENE,70,21.0,26.0,87,0.00,,,0.01,,2013-04-11 17:02:00,
2013-04-11 12:12:00,31.0,28.0,-100.00,ENE,70,18.0,26.0,89,0.00,,,0.01,,2013-04-11 17:12:00,
2013-04-11 12:23:00,31.0,28.0,-100.00,East,80,14.0,26.0,90,0.00,,,0.01,,2013-04-11 17:23:00,
2013-04-11 12:32:00,31.0,28.0,-100.00,ENE,70,14.0,20.0,90,0.00,,,0.01,,2013-04-11 17:32:00,
2013-04-11 12:42:00,31.0,28.0,-100.00,ENE,70,11.0,16.0,90,0.00,,,0.01,,2013-04-11 17:42:00,
2013-04-11 12:52:00,31.0,28.0,-100.00,ENE,70,13.0,16.0,90,0.00,,,0.01,,2013-04-11 17:52:00,
2013-04-11 13:03:00,31.0,28.0,-100.00,ENE,75,9.0,14.0,89,0.00,,,0.01,,2013-04-11 18:03:00,
2013-04-11 13:13:00,31.0,28.0,-100.00,ENE,75,12.0,15.0,89,0.00,,,0.01,,2013-04-11 18:13:00,
2013-04-11 13:22:00,31.0,28.0,-100.00,East,80,10.0,16.0,88,0.00,,,0.01,,2013-04-11 18:22:00,
2013-04-11 13:32:00,31.0,28.0,-100.00,ENE,70,10.0,15.0,88,0.00,,,0.01,,2013-04-11 18:32:00,
2013-04-11 13:42:00,31.0,28.0,-100.00,ENE,65,9.0,12.0,88,0.00,,,0.01,,2013-04-11 18:42:00,
2013-04-11 13:52:00,31.0,28.0,-100.00,ENE,65,8.0,12.0,88,0.00,,,0.01,,2013-04-11 18:52:00,
2013-04-11 14:03:00,31.0,28.0,-100.00,ENE,70,9.0,13.0,88,0.00,,,0.01,,2013-04-11 19:03:00,
2013-04-11 14:13:00,32.0,28.0,-100.00,ENE,70,10.0,13.0,87,0.00,,,0.01,,2013-04-11 19:13:00,
2013-04-11 14:22:00,32.0,28.0,-100.00,ENE,70,8.0,13.0,86,0.00,,,0.01,,2013-04-11 19:22:00,
2013-04-11 14:32:00,32.0,28.0,-100.00,ENE,70,9.0,14.0,85,0.00,,,0.01,,2013-04-11 19:32:00,
2013-04-11 14:42:00,32.0,28.0,-100.00,ENE,70,9.0,13.0,85,0.00,,,0.01,,2013-04-11 19:42:00,
2013-04-11 14:52:00,32.0,28.0,-100.00,ENE,65,7.0,13.0,85,0.00,,,0.01,,2013-04-11 19:52:00,
2013-04-11 15:02:00,32.0,28.0,-100.00,ENE,65,9.0,12.0,85,0.00,,,0.01,,2013-04-11 20:02:00,
2013-04-11 15:13:00,32.0,28.0,-100.00,ENE,75,12.0,14.0,86,0.00,,,0.01,,2013-04-11 20:13:00,
2013-04-11 15:22:00,32.0,28.0,-100.00,ENE,65,13.0,21.0,86,0.00,,,0.01,,2013-04-11 20:22:00,
2013-04-11 15:33:00,32.0,28.0,-100.00,ENE,60,14.0,26.0,86,0.00,,,0.01,,2013-04-11 20:33:00,
2013-04-11 15:42:00,33.0,28.0,-100.00,ENE,65,17.0,28.0,85,0.00,,,0.01,,2013-04-11 20:42:00,
2013-04-11 15:52:00,33.0,28.0,-100.00,ENE,70,16.0,29.0,84,0.00,,,0.01,,2013-04-11 20:52:00,
2013-04-11 16:02:00,33.0,28.0,-100.00,ENE,70,21.0,27.0,83,0.00,,,0.01,,2013-04-11 21:02:00,
2013-04-11 16:12:00,33.0,28.0,-100.00,ENE,65,14.0,28.0,83,0.00,,,0.01,,2013-04-11 21:12:00,
2013-04-11 16:22:00,32.0,28.0,-100.00,ENE,65,18.0,24.0,85,0.00,,,0.01,,2013-04-11 21:22:00,
2013-04-11 16:33:00,32.0,28.0,-100.00,ENE,60,14.0,21.0,85,0.00,,,0.01,,2013-04-11 21:33:00,
2013-04-11 16:42:00,32.0,28.0,-100.00,ENE,65,16.0,22.0,85,0.00,,,0.01,,2013-04-11 21:42:00,
2013-04-11 16:53:00,32.0,28.0,-100.00,NE,55,16.0,21.0,88,0.00,,,0.01,,2013-04-11 21:53:00,
2013-04-11 17:03:00,31.0,28.0,-100.00,ENE,60,17.0,23.0,90,0.00,,,0.01,,2013-04-11 22:03:00,
2013-04-11 17:13:00,31.0,28.0,-100.00,ENE,60,14.0,25.0,90,0.00,,,0.01,,2013-04-11 22:13:00,
2013-04-11 17:23:00,31.0,28.0,-100.00,ENE,60,16.0,21.0,90,0.00,,,0.01,,2013-04-11 22:23:00,
2013-04-11 17:32:00,31.0,28.0,-100.00,NE,55,14.0,22.0,91,0.00,,,0.01,,2013-04-11 22:32:00,
2013-04-11 17:44:00,31.0,28.0,-100.00,NE,55,21.0,26.0,92,0.00,,,0.01,,2013-04-11 22:44:00,
2013-04-11 17:52:00,31.0,28.0,-100.00,ENE,60,16.0,22.0,92,0.00,,,0.01,,2013-04-11 22:52:00,
2013-04-11 18:03:00,31.0,28.0,-100.00,NE,55,16.0,23.0,92,0.00,,,0.01,,2013-04-11 23:03:00,
2013-04-11 18:12:00,31.0,28.0,-100.00,NE,50,19.0,21.0,92,0.00,,,0.01,,2013-04-11 23:12:00,
2013-04-11 18:22:00,31.0,28.0,-100.00,NE,55,18.0,26.0,92,0.00,,,0.01,,2013-04-11 23:22:00,
2013-04-11 18:32:00,31.0,28.0,-100.00,NE,55,18.0,23.0,92,0.00,,,0.01,,2013-04-11 23:32:00,
2013-04-11 18:42:00,31.0,28.0,-100.00,NE,55,15.0,24.0,91,0.00,,,0.01,,2013-04-11 23:42:00,
2013-04-11 18:52:00,31.0,28.0,-100.00,NE,50,18.0,21.0,91,0.00,,,0.01,,2013-04-11 23:52:00,
2013-04-11 19:02:00,31.0,28.0,-100.00,NE,50,18.0,22.0,91,0.00,,,0.01,,2013-04-12 00:02:00,
2013-04-11 19:12:00,31.0,28.0,-100.00,NE,55,19.0,22.0,91,0.00,,,0.01,,2013-04-12 00:12:00,
2013-04-11 19:22:00,31.0,28.0,-100.00,NE,50,19.0,23.0,91,0.00,,,0.01,,2013-04-12 00:22:00,
2013-04-11 19:32:00,31.0,28.0,-100.00,NE,50,19.0,22.0,90,0.00,,,0.01,,2013-04-12 00:32:00,
2013-04-11 19:42:00,31.0,28.0,-100.00,NE,50,17.0,25.0,90,0.00,,,0.01,,2013-04-12 00:42:00,
2013-04-11 19:52:00,30.0,28.0,-100.00,NE,45,19.0,22.0,91,0.00,,,0.01,,2013-04-12 00:52:00,
2013-04-11 20:02:00,30.0,28.0,-100.00,NE,45,20.0,25.0,91,0.00,,,0.01,,2013-04-12 01:02:00,
2013-04-11 20:12:00,30.0,27.0,-100.00,NE,50,21.0,28.0,90,0.00,,,0.01,,2013-04-12 01:12:00,
2013-04-11 20:22:00,30.0,27.0,-100.00,NE,45,19.0,26.0,90,0.00,,,0.01,,2013-04-12 01:22:00,
2013-04-11 20:32:00,29.0,27.0,-100.00,NE,45,19.0,26.0,90,0.00,,,0.01,,2013-04-12 01:32:00,
2013-04-11 20:42:00,29.0,27.0,-100.00,NE,45,22.0,27.0,90,0.00,,,0.01,,2013-04-12 01:42:00,
2013-04-11 20:52:00,29.0,27.0,-100.00,NE,50,21.0,26.0,89,0.00,,,0.01,,2013-04-12 01:52:00,
2013-04-11 21:03:00,29.0,27.0,-100.00,NE,45,19.0,27.0,88,0.00,,,0.01,,2013-04-12 02:03:00,
2013-04-11 21:12:00,29.0,27.0,-100.00,NE,50,21.0,27.0,88,0.00,,,0.01,,2013-04-12 02:12:00,
2013-04-11 21:22:00,29.0,27.0,-100.00,NE,45,19.0,27.0,88,0.00,,,0.01,,2013-04-12 02:22:00,
2013-04-11 21:32:00,29.0,27.0,-100.00,NE,50,21.0,26.0,88,0.00,,,0.01,,2013-04-12 02:32:00,
2013-04-11 21:42:00,29.0,27.0,-100.00,NE,50,20.0,27.0,88,0.00,,,0.01,,2013-04-12 02:42:00,
2013-04-11 21:52:00,29.0,25.0,-100.00,NE,50,21.0,27.0,87,0.00,,,0.01,,2013-04-12 02:52:00,
2013-04-11 22:02:00,29.0,25.0,-100.00,NE,50,21.0,28.0,87,0.00,,,0.01,,2013-04-12 03:02:00,
2013-04-11 22:12:00,29.0,25.0,-100.00,NE,50,22.0,29.0,87,0.00,,,0.01,,2013-04-12 03:12:00,
2013-04-11 22:22:00,29.0,25.0,-100.00,NE,50,22.0,27.0,87,0.00,,,0.01,,2013-04-12 03:22:00,
2013-04-11 22:33:00,28.0,25.0,-100.00,NE,50,21.0,27.0,86,0.00,,,0.01,,2013-04-12 03:33:00,
2013-04-11 22:43:00,29.0,25.0,-100.00,NE,50,24.0,28.0,86,0.00,,,0.01,,2013-04-12 03:43:00,
2013-04-11 22:52:00,28.0,25.0,-100.00,NE,50,21.0,27.0,86,0.00,,,0.01,,2013-04-12 03:52:00,
2013-04-11 23:03:00,28.0,25.0,-100.00,NE,50,21.0,28.0,85,0.00,,,0.01,,2013-04-12 04:03:00,
2013-04-11 23:13:00,28.0,25.0,-100.00,NE,50,21.0,27.0,85,0.00,,,0.01,,2013-04-12 04:13:00,
2013-04-11 23:22:00,28.0,25.0,-100.00,NE,50,19.0,24.0,85,0.00,,,0.01,,2013-04-12 04:22:00,
2013-04-11 23:33:00,28.0,25.0,-100.00,NE,45,17.0,23.0,85,0.00,,,0.01,,2013-04-12 04:33:00,
2013-04-11 23:43:00,28.0,25.0,-100.00,NE,50,18.0,23.0,85,0.00,,,0.01,,2013-04-12 04:43:00,
2013-04-11 23:52:00,28.0,25.0,-100.00,NE,50,19.0,22.0,85,0.00,,,0.01,,2013-04-12 04:52:00,